Trinidad, CO

5:27 AM MST on November 18, 2017 (GMT -0700)
Stokes

Weather History for KTAD - May, 2014

Change the Weather History Date:

Saturday, May 10, 2014

  Actual Average Record
Temperature  
Mean Temperature 58 °F 58 °F  
Max Temperature 79 °F 73 °F 89 °F (1973)
Min Temperature 37 °F 42 °F 28 °F (1981)
Degree Days  
Heating Degree Days 7 8  
Month to date heating degree days 75 93  
Since 1 July heating degree days 5194 5383  
Cooling Degree Days 0 0  
Month to date cooling degree days 5 0  
Year to date cooling degree days 5 2  
Growing Degree Days 8 (Base 50)    
Moisture  
Dew Point 23 °F    
Average Humidity 32    
Maximum Humidity 52    
Minimum Humidity 11    
Precipitation  
Precipitation 0.00 in 0.05 in 1.14 in (1955)
Month to date precipitation 0.02 0.46  
Year to date precipitation 1.48 3.37  
Sea Level Pressure  
Sea Level Pressure 29.64 in    
Wind  
Wind Speed 12 mph (WSW)    
Max Wind Speed 31 mph    
Max Gust Speed 41 mph    
Visibility 10 miles    
Events      
T = Trace of Precipitation, MM = Missing Value Source: NWS Daily Summary

Daily Weather History Graph

Daily Weather History Graph

Search for Another Location

Airport or City:

Trip Planner

Search our weather history database for the weather conditions in past years. The results will help you decide how hot, cold, wet, or windy it might be!

Date:

Astronomy

May. 10, 2014 Rise Set
Actual Time 5:53 AM MDT 7:54 PM MDT
Civil Twilight 5:24 AM MDT 8:23 PM MDT
Nautical Twilight 4:49 AM MDT 8:58 PM MDT
Astronomical Twilight 4:11 AM MDT 9:36 PM MDT
Moon 3:58 PM MDT (5/10) 3:21 AM MDT (5/10)
Length of Visible Light 14h 59m
Length of Day
14h 01m
Waxing Gibbous, 82% of the Moon is Illuminated
May 10
Waxing Gibbous
May 14
Full
May 21
Last Quarter
May 28
New
Jun 5
First Quarter

Hourly Weather History & Observations

Time (MDT) Temp. Windchill Dew Point Humidity Pressure Visibility Wind Dir Wind Speed Gust Speed Precip Events Conditions
12:54 AM 45.0 °F 41.8 °F 18.0 °F 34% 29.77 in 10.0 mi Variable 5.8 mph - N/A   Clear
1:54 AM 44.1 °F 40.8 °F 19.0 °F 37% 29.78 in 10.0 mi West 5.8 mph - N/A   Clear
2:54 AM 45.0 °F 40.6 °F 19.0 °F 36% 29.75 in 10.0 mi West 8.1 mph - N/A   Clear
3:54 AM 43.0 °F 37.2 °F 19.0 °F 38% 29.75 in 10.0 mi WSW 10.4 mph - N/A   Clear
4:54 AM 39.0 °F 32.3 °F 19.9 °F 46% 29.78 in 10.0 mi WNW 10.4 mph - N/A   Scattered Clouds
5:54 AM 37.9 °F 31.5 °F 21.0 °F 51% 29.78 in 10.0 mi WNW 9.2 mph - N/A   Clear
6:54 AM 42.1 °F 36.6 °F 23.0 °F 47% 29.80 in 10.0 mi WNW 9.2 mph - N/A   Clear
7:54 AM 52.0 °F - 24.1 °F 34% 29.77 in 10.0 mi WNW 9.2 mph - N/A   Clear
8:54 AM 59.0 °F - 28.9 °F 32% 29.75 in 10.0 mi WNW 5.8 mph - N/A   Clear
9:54 AM 62.1 °F - 28.0 °F 28% 29.73 in 10.0 mi Calm Calm - N/A   Clear
10:54 AM 69.1 °F - 25.0 °F 19% 29.69 in 10.0 mi North - - N/A   Clear
11:54 AM 73.0 °F - 23.0 °F 15% 29.66 in 10.0 mi SE 15.0 mph 24.2 mph N/A   Clear
12:54 PM 75.0 °F - 21.9 °F 14% 29.60 in 10.0 mi South 10.4 mph 21.9 mph N/A   Clear
1:46 PM 77.0 °F - 19.9 °F 12% 29.77 in 10.0 mi South 19.6 mph 25.3 mph N/A   Scattered Clouds
1:54 PM 78.1 °F - 19.9 °F 11% 29.56 in 10.0 mi South 21.9 mph 28.8 mph N/A   Partly Cloudy
2:54 PM 77.0 °F - 21.0 °F 12% 29.54 in 10.0 mi South 21.9 mph 34.5 mph N/A   Mostly Cloudy
3:54 PM 73.9 °F - 21.0 °F 14% 29.52 in 10.0 mi SSE 10.4 mph 33.4 mph N/A   Overcast
4:54 PM 75.0 °F - 21.0 °F 13% 29.52 in 10.0 mi South 27.6 mph 38.0 mph N/A   Mostly Cloudy
5:54 PM 73.9 °F - 23.0 °F 15% 29.52 in 10.0 mi South 21.9 mph 34.5 mph N/A   Scattered Clouds
6:54 PM 73.0 °F - 21.0 °F 14% 29.49 in 10.0 mi SE 6.9 mph - N/A   Mostly Cloudy
7:22 PM 72.0 °F - 27.0 °F 19% 29.67 in 10.0 mi NW 16.1 mph - N/A   Mostly Cloudy
7:54 PM 68.0 °F - 27.0 °F 21% 29.49 in 10.0 mi WNW 10.4 mph - N/A   Clear
8:54 PM 57.9 °F - 26.1 °F 30% 29.50 in 10.0 mi WSW 9.2 mph - N/A   Clear
9:54 PM 62.1 °F - 23.0 °F 22% 29.50 in 10.0 mi SW 11.5 mph - N/A   Clear
10:54 PM 55.9 °F - 23.0 °F 28% 29.49 in 10.0 mi WSW 9.2 mph - N/A   Clear
11:54 PM 52.0 °F - 24.1 °F 34% 29.47 in 10.0 mi WSW 6.9 mph - N/A   Partly Cloudy